Regional Weather Roundup
Issued by NWS

Home | Current Version | Previous Version | Graphics & Text | Print | Product List | Glossary On
Versions: 1 2 3 4 5 6 7 8 9 10 11 12 13 14 15 16 17 18 19 20 21 22 23 24 25 26 27 28 29 30 31 32 33 34 35 36 37 38 39 40 41 42 43 44 45 46 47 48 49 50
784
ASUS45 KCYS 241310
RWRWY

WYOMING REGIONAL WEATHER ROUNDUP
NATIONAL WEATHER SERVICE CHEYENNE WY
700 AM MDT MON APR 24 2017

NOTE:  "FAIR" INDICATES FEW OR NO CLOUDS BELOW 12,000 FEET
WITH NO SIGNIFICANT WEATHER AND/OR OBSTRUCTIONS TO VISIBILITY.

WYZ001-241400-
YELLOWSTONE NATIONAL PARK

CITY           SKY/WX    TMP DP  RH WIND       PRES   REMARKS
LK YELLOWSTONE   N/A     26  26 100 CALM      29.75S
W YELLOWSTONE  NOT AVBL

$$
WYZ002>013-054>058-071-098>099-241400-
NORTHERN WYOMING

CITY           SKY/WX    TMP DP  RH WIND       PRES   REMARKS
JACKSON        MOCLDY    36  34  93 CALM      29.75S
CODY           FAIR      39  33  79 SE8       29.69S WCI  33
GREYBULL       FAIR      41  36  82 CALM      29.67S
WORLAND        FAIR      41  38  89 SW6       29.67F
SHERIDAN       FAIR      39  35  86 CALM      29.67S
BUFFALO        FAIR      43  33  68 CALM      29.68S
GILLETTE       FAIR      42  40  92 W8        29.66S
HULETT         CLOUDY    43  41  93 W5        29.67R
NEWCASTLE      CLOUDY    43  39  87 N14G22    29.66R

$$
WYZ014>020-022>026-101>103-241400-
CENTRAL WYOMING

CITY           SKY/WX    TMP DP  RH WIND       PRES   REMARKS
BIG PINEY      FAIR      30  26  85 E8        29.78F WCI  22
PINEDALE       FAIR      32  30  93 W3        29.79S
DUBOIS         CLOUDY    34  27  75 CALM      29.72S
LANDER         FAIR      40  26  57 W6        29.70S
RIVERTON       FAIR      39  30  70 SW9       29.71S WCI  33
CASPER         FAIR      35  33  92 S7        29.72R WCI  29
DOUGLAS        FAIR      42  38  85 W7        29.72R

$$
WYZ021-027>030-104>119-241400-
SOUTHERN WYOMING

CITY           SKY/WX    TMP DP  RH WIND       PRES   REMARKS
EVANSTON       FAIR      34  30  85 S7        29.78F WCI  28
KEMMERER         N/A     28  28 100 N9        29.79S WCI  20
ROCK SPRINGS   FAIR      37  32  82 S6        29.79S WCI  32
DIXON            N/A     36  34  92 CALM      29.85S
RAWLINS        FAIR      38  33  82 W12       29.78F WCI  30
SARATOGA       FAIR      34  34 100 CALM      29.80S
LARAMIE        FAIR      37  29  72 N7        29.76R WCI  32
CHEYENNE       FAIR      45  29  53 NW20G26   29.74R
TORRINGTON     FAIR      48  38  68 W12       29.65R
PINE BLUFFS    FAIR      43  34  70 W18G24    29.70R

$$




USA.gov is the U.S. government's official web portal to all federal, state and local government web resources and services.